Le nostre stazioni meteo in Italia

Pubblicità
Il mio iltempo24.it
Rodkallen, Svezia (2188): Temperatura & dewpoint: 15.01.2017 22:00:00 - 21.01.2017 22:00:00 (CET)Rodkallen, Svezia (2188): velocità del vento & gusts: 15.01.2017 22:00:00 - 21.01.2017 22:00:00 (CET)Rodkallen, Svezia (2188): direzione del vento: 15.01.2017 22:00:00 - 21.01.2017 22:00:00 (CET)Rodkallen, Svezia (2188): visibility: 15.01.2017 22:00:00 - 21.01.2017 22:00:00 (CET)Rodkallen, Svezia (2188): precipitazioni: 15.01.2017 22:00:00 - 21.01.2017 22:00:00 (CET)
Data & Tempo tt [°C] td [°C] ff [km/h] ff [kn] fx [km/h] fx [kn] dd vv [km] rr [mm]
21.01.2017 22:00:00 - - - - - - - - -
21.01.2017 21:00:00 -1,7 -1,7 18 10 25 14 ONO 5 0,0
21.01.2017 20:00:00 -1,1 -3,3 16 9 20 11 OSO 50 0,0
21.01.2017 19:00:00 -1,1 -2,5 11 6 19 10 SSO 39 0,0
21.01.2017 18:00:00 -1,8 -4,0 3 2 10 6 SSO 32 0,0
21.01.2017 17:00:00 -2,0 -4,7 9 5 18 10 OSO 24 0,0
21.01.2017 16:00:00 -2,2 -4,7 14 7 20 11 OSO 50 0,0
21.01.2017 15:00:00 -2,4 -5,2 18 10 24 13 OSO 48 0,0
21.01.2017 14:00:00 -2,4 -5,0 14 7 20 11 O 50 0,0
21.01.2017 13:00:00 -2,2 -6,0 16 9 31 17 O 50 0,0
21.01.2017 12:00:00 -2,1 -5,8 26 14 30 16 O 50 0,0
21.01.2017 11:00:00 -1,9 -6,1 24 13 31 17 O 50 0,0
21.01.2017 10:00:00 -1,6 -5,8 26 14 37 20 O 50 0,0
21.01.2017 09:00:00 -2,2 -5,5 26 14 34 18 O 50 0,0
21.01.2017 08:00:00 -2,2 -5,5 24 13 33 18 O 50 0,0
21.01.2017 07:00:00 -3,0 -6,6 19 10 32 17 ONO 50 0,0
21.01.2017 06:00:00 -2,1 -5,2 28 15 42 23 ONO 50 0,0
21.01.2017 05:00:00 -1,7 -4,2 29 16 40 22 O 50 0,0
21.01.2017 04:00:00 -1,4 -4,4 33 18 41 22 O 50 0,0
21.01.2017 03:00:00 -1,4 -4,4 35 19 45 24 OSO 50 0,0
21.01.2017 02:00:00 -1,5 -4,4 32 17 41 22 OSO 50 0,0
21.01.2017 01:00:00 -1,3 -4,5 24 13 29 16 OSO 50 0,0
21.01.2017 00:00:00 -1,2 -4,2 26 14 34 19 O 50 0,0
20.01.2017 23:00:00 -1,0 -4,4 27 15 37 20 OSO 50 0,0
20.01.2017 22:00:00 -0,8 -4,6 31 17 38 20 O 50 0,0
20.01.2017 21:00:00 -1,2 -4,2 29 16 43 23 O 50 0,0
20.01.2017 20:00:00 -0,7 -4,4 37 20 45 24 OSO 50 0,0
20.01.2017 19:00:00 -0,7 -4,2 36 19 42 23 OSO 50 0,0
20.01.2017 18:00:00 -0,8 -3,8 33 18 41 22 OSO 50 0,0
20.01.2017 17:00:00 -0,8 -3,7 32 17 41 22 OSO 50 0,0
20.01.2017 16:00:00 -1,0 -4,0 27 15 34 19 OSO 50 0,0
20.01.2017 15:00:00 -0,8 -3,8 29 16 38 21 OSO 50 0,0
20.01.2017 14:00:00 -0,7 -3,6 32 17 41 22 SO 50 0,0
20.01.2017 13:00:00 -0,9 -3,9 33 18 49 26 SO 50 0,0
20.01.2017 12:00:00 -1,0 -4,2 38 21 51 28 SO 50 0,0
20.01.2017 11:00:00 -1,1 -4,3 39 21 54 29 SO 50 0,0
20.01.2017 10:00:00 -1,2 -4,3 43 23 56 30 SO 50 0,0
20.01.2017 09:00:00 -1,3 -4,7 45 24 56 31 SO 50 0,0
20.01.2017 08:00:00 -1,4 -4,7 44 24 58 31 SO 50 0,0
20.01.2017 07:00:00 -1,4 -5,1 42 23 56 30 SO 50 0,0
20.01.2017 06:00:00 -1,7 -5,1 43 23 56 30 SO 50 0,0
20.01.2017 05:00:00 -1,9 -5,4 46 25 57 31 SO 50 0,0
20.01.2017 04:00:00 -2,0 -5,7 42 23 52 28 SO 50 0,0
20.01.2017 03:00:00 -2,3 -6,4 33 18 47 25 SO 50 0,0
20.01.2017 02:00:00 -2,1 -7,0 30 16 43 23 OSO 50 0,0
20.01.2017 01:00:00 -2,2 -7,1 34 18 41 22 OSO 45 0,0
20.01.2017 00:00:00 -1,7 -8,2 34 19 46 25 O 49 0,0
19.01.2017 23:00:00 -2,0 -7,9 28 15 47 25 O 50 0,0
19.01.2017 22:00:00 -1,9 -8,2 38 20 58 32 O 50 0,0
19.01.2017 21:00:00 -1,8 -7,7 36 19 60 32 ONO 50 0,0
19.01.2017 20:00:00 -1,4 -8,8 46 25 71 39 ONO 50 0,0
19.01.2017 19:00:00 -1,0 -8,2 50 27 90 48 ONO 50 0,0
19.01.2017 18:00:00 0,0 -6,2 66 35 96 52 O 50 0,0
19.01.2017 17:00:00 1,0 -6,1 68 37 87 47 O 49 0,0
19.01.2017 16:00:00 1,5 -4,8 50 27 75 40 O 50 0,0
19.01.2017 15:00:00 1,9 -4,4 55 30 69 37 O 50 0,0
19.01.2017 14:00:00 1,8 -0,8 35 19 53 29 O 50 0,0
19.01.2017 13:00:00 2,8 -1,4 45 24 61 33 O 50 0,0
19.01.2017 12:00:00 2,9 0,0 57 31 91 49 O 50 0,0
19.01.2017 11:00:00 1,4 1,4 48 26 69 38 SSO 12 0,0
19.01.2017 10:00:00 1,8 0,9 58 31 71 38 SSO 22 0,0
19.01.2017 09:00:00 1,6 0,8 54 29 71 39 S 18 0,0
19.01.2017 08:00:00 1,6 0,9 55 30 63 34 S 28 0,0
19.01.2017 07:00:00 1,7 0,6 37 20 45 25 S 50 0,0
19.01.2017 06:00:00 1,9 0,1 34 19 41 22 SSO 50 0,0
19.01.2017 05:00:00 1,4 0,3 22 12 26 14 SO 50 0,0
19.01.2017 04:00:00 2,7 -0,6 24 13 35 19 O 50 0,0
19.01.2017 03:00:00 3,2 -1,4 34 18 51 27 O 50 0,0
19.01.2017 02:00:00 3,6 -1,1 39 21 55 30 O 50 0,0
19.01.2017 01:00:00 4,2 -0,2 41 22 67 36 O 50 0,0
19.01.2017 00:00:00 4,3 0,2 44 24 54 29 OSO 48 0,0
18.01.2017 23:00:00 3,0 1,9 46 25 66 36 SSO 50 0,0
18.01.2017 22:00:00 2,0 2,0 54 29 66 36 S 50 0,0
18.01.2017 21:00:00 2,2 2,2 55 30 71 38 S 25 0,0
18.01.2017 20:00:00 2,2 2,2 49 27 64 35 SSO 50 0,0
18.01.2017 19:00:00 2,3 2,3 34 18 48 26 SSO 50 0,0
18.01.2017 18:00:00 1,8 1,8 37 20 55 30 SSO 50 0,0
18.01.2017 17:00:00 1,9 1,9 48 26 56 30 SSO 50 0,0
18.01.2017 16:00:00 1,5 1,5 35 19 53 29 SSO 50 0,0
18.01.2017 15:00:00 1,3 1,3 36 19 47 25 SSO 50 0,0
18.01.2017 14:00:00 1,0 1,0 26 14 49 27 S 50 0,0
18.01.2017 13:00:00 1,1 1,1 41 22 53 28 S 50 0,0
18.01.2017 12:00:00 0,2 0,2 27 15 34 19 S 40 0,1
18.01.2017 11:00:00 -0,3 -0,3 17 9 34 19 S 6 0,2
18.01.2017 10:00:00 -0,4 -0,4 28 15 40 21 SSO 3,7 0,0
18.01.2017 09:00:00 -0,2 -0,2 21 11 34 19 SSO 47 0,0
18.01.2017 08:00:00 -0,3 -0,8 16 9 31 17 SSO 33 0,0
18.01.2017 07:00:00 -0,3 -1,2 23 13 30 16 SO 39 0,0
18.01.2017 06:00:00 -0,5 -1,5 19 10 24 13 OSO 38 0,0
18.01.2017 05:00:00 -0,5 -1,5 16 8 34 18 OSO 50 0,0
18.01.2017 04:00:00 -0,7 -1,1 22 12 33 18 OSO 34 0,0
18.01.2017 03:00:00 -0,4 -2,1 31 17 42 23 OSO 37 0,0
18.01.2017 02:00:00 -0,3 -1,4 25 14 35 19 OSO 41 0,0
18.01.2017 01:00:00 0,0 -1,3 30 16 38 20 OSO 47 0,0
18.01.2017 00:00:00 -0,3 -0,3 26 14 36 19 OSO 45 0,0
17.01.2017 23:00:00 0,0 -0,3 28 15 39 21 OSO 48 0,0
17.01.2017 22:00:00 0,3 -0,6 31 17 39 21 OSO 50 0,0
17.01.2017 21:00:00 0,4 -0,4 30 16 43 23 OSO 50 0,0
17.01.2017 20:00:00 0,4 -0,6 23 13 29 16 OSO 41 0,0
17.01.2017 19:00:00 0,6 -0,9 26 14 34 19 OSO 50 0,0
17.01.2017 18:00:00 0,0 -0,2 24 13 34 18 SO 50 0,0
17.01.2017 17:00:00 -0,2 -0,2 26 14 33 18 SO 50 0,0
17.01.2017 16:00:00 -0,6 -0,6 19 10 35 19 SSO 50 0,0
17.01.2017 15:00:00 -0,8 -0,8 29 16 40 21 SSO 50 0,0
17.01.2017 14:00:00 -1,2 -1,2 32 17 43 23 SSO 50 0,0
17.01.2017 13:00:00 -1,3 -1,3 36 19 44 24 S 50 0,0
17.01.2017 12:00:00 -1,5 -2,6 36 19 43 23 SSO 50 0,0
17.01.2017 11:00:00 -1,8 -2,6 37 20 44 24 SSO 50 0,0
17.01.2017 10:00:00 -2,0 -2,7 35 19 45 25 SSO 50 0,0
17.01.2017 09:00:00 -2,4 -3,2 36 19 43 23 SSO 50 0,0
17.01.2017 08:00:00 -2,6 -3,8 34 18 42 23 SSO 50 0,0
17.01.2017 07:00:00 -3,0 -4,2 36 19 44 24 SSO 50 0,0
17.01.2017 06:00:00 -3,1 -4,5 40 21 43 23 SSO 50 0,0
17.01.2017 05:00:00 -3,1 -4,6 36 19 47 25 SSO 50 0,0
17.01.2017 04:00:00 -2,4 -3,8 34 18 47 26 SSO 50 0,0
17.01.2017 03:00:00 -2,8 -4,4 37 20 44 24 SSO 50 0,0
17.01.2017 02:00:00 -3,3 -4,7 32 17 41 22 S 50 0,0
17.01.2017 01:00:00 -3,7 -5,5 32 17 38 20 SSO 50 0,0
17.01.2017 00:00:00 -4,0 -6,4 27 15 33 18 SSO 50 0,0
16.01.2017 23:00:00 -3,7 -6,4 18 10 28 15 S 50 0,0
16.01.2017 22:00:00 -3,2 -4,9 22 12 26 14 SSO 50 0,0
16.01.2017 21:00:00 -3,0 -5,0 17 9 22 12 SSO 50 0,0
16.01.2017 20:00:00 -3,3 -3,7 12 6 18 10 SSO 41 0,0
16.01.2017 19:00:00 -3,9 -5,0 13 7 16 9 SO 50 0,0
16.01.2017 18:00:00 -6,6 -6,6 0 0 8 4 N 50 0,0
16.01.2017 17:00:00 -6,6 -6,6 4 2 15 8 NNO 50 0,0
16.01.2017 16:00:00 -6,7 -8,4 13 7 18 10 ONO 50 0,0
16.01.2017 15:00:00 -6,6 -8,4 15 8 29 16 NO 50 0,0
16.01.2017 14:00:00 -6,0 -7,2 21 11 26 14 ONO 50 0,0
16.01.2017 13:00:00 -6,6 -8,6 16 8 29 16 NO 50 0,0
16.01.2017 12:00:00 -6,6 -8,0 17 9 26 14 ONO 50 0,0
16.01.2017 11:00:00 -6,0 -8,1 18 10 32 18 NO 50 0,0
16.01.2017 10:00:00 -6,0 -7,9 22 12 32 17 NO 50 0,0
16.01.2017 09:00:00 -6,2 -8,5 22 12 33 18 NO 50 0,0
16.01.2017 08:00:00 -5,9 -8,2 22 12 33 18 NO 50 0,0
16.01.2017 07:00:00 -5,6 -7,6 25 13 40 21 NO 50 0,0
16.01.2017 06:00:00 -5,1 -6,8 22 12 35 19 NO 50 0,0
16.01.2017 05:00:00 -4,8 -6,5 22 12 36 19 NO 50 0,0
16.01.2017 04:00:00 -4,9 -7,1 28 15 41 22 NO 50 0,0
16.01.2017 03:00:00 -5,6 -7,4 14 7 23 13 NO 50 0,0
16.01.2017 02:00:00 -6,7 -8,6 23 12 34 18 NO 50 0,0
16.01.2017 01:00:00 -7,4 -9,4 19 10 38 20 NO 50 0,0
16.01.2017 00:00:00 -8,6 -10,4 24 13 34 18 NO 50 0,0
15.01.2017 23:00:00 -9,5 -10,5 22 12 32 17 NO 50 0,0
15.01.2017 22:00:00 -10,5 -11,6 18 10 29 16 NO 50 0,0

tt = Temperatura
td = dewpoint
ff = velocità del vento
fx = gusts
dd = direzione del vento
vv = visibility
rr = precipitazioni

Stazioni seguenti

WeatherPro
AMSI
MeteoEarth